Location: Hopkins Observatory
(42.6965°N, 73.1843°W)
Time: 06:05:54
(UTC-04:00)

Amateur Radio Satellites - All Passes

Search period start: 29 April 2016 05:35
Search period end: 30 April 2016 05:35
Location: Hopkins Observatory, 42.6965°N, 73.1843°W

Satellite Date Start Highest point End Downlink Frequencies (MHz)
Time Altitude Azimuth
DANDE 29 Apr 05:36:11 05:38:11 11° 275° (W) 05:40:16 436.750
NOAA 15 29 Apr 05:40:11 05:43:07 15° 90° (E) 05:46:02 137.62
Cosmos 2491 29 Apr 05:43:30 05:48:34 17° 75° (ENE) 05:53:39 435.465 / 435.565
CUBESAT XI-V 29 Apr 05:51:14 05:55:46 62° 259° (W) 06:00:22 437.345
NOAA 18 29 Apr 05:58:48 06:02:41 20° 92° (E) 06:06:33 137.9125
HORYU 2 29 Apr 06:04:38 06:08:59 57° 288° (WNW) 06:13:17 437.375
AIST 2 29 Apr 06:05:02 06:08:54 36° 49° (NE) 06:12:43 435.215
BRITE-PL 29 Apr 06:12:40 06:17:04 23° 91° (E) 06:21:26 437.365/2234.400
CUTE-I 29 Apr 06:22:10 06:26:27 24° 94° (E) 06:30:41 437.470
LilacSat-2 29 Apr 06:43:32 06:46:59 31° 97° (E) 06:50:24 437.200
YUBILEINY 29 Apr 06:53:24 07:02:09 89° 265° (W) 07:10:53 435.215
RS-15 29 Apr 06:55:04 07:07:17 66° 50° (NE) 07:19:32 29.354- 29.394
STRAND 1 29 Apr 07:02:24 07:07:27 68° 74° (ENE) 07:12:32 437.568
Cubesat XI-IV 29 Apr 07:04:30 07:09:46 58° 101° (ESE) 07:14:59 437.490
AO-7 29 Apr 07:14:39 07:20:01 19° 312° (NW) 07:25:24 29.400- 29.500
Cosmos 2504 29 Apr 07:18:05 07:24:53 36° 73° (ENE) 07:32:03 435.465 / 435.565
NOAA 15 29 Apr 07:18:06 07:23:26 73° 286° (WNW) 07:28:43 137.62
PRISM 29 Apr 07:33:25 07:36:51 27° 68° (ENE) 07:40:17 437.425
Cosmos 2491 29 Apr 07:35:09 07:43:58 84° 96° (E) 07:52:52 435.465 / 435.565
M-CUBED/EXP-1 PRIME 29 Apr 07:36:06 07:39:55 37° 102° (ESE) 07:43:26 437.505
NOAA 18 29 Apr 07:38:21 07:43:42 57° 289° (WNW) 07:49:02 137.9125
CINEMA 3 29 Apr 07:43:51 07:44:33 10° 86° (E) 07:45:14 145.822/145.860
AIST 2 29 Apr 07:43:55 07:47:12 23° 247° (WSW) 07:50:29 435.215
GOMX 1 29 Apr 07:45:45 07:51:17 76° 102° (ESE) 07:56:37 467.674
BRITE-PL 29 Apr 07:50:15 07:55:48 55° 287° (WNW) 08:01:19 437.365/2234.400
CUTE 1.7 + AOD 2 29 Apr 07:50:29 07:51:20 10° 89° (E) 07:52:12 437.475
SO-50 29 Apr 07:52:46 07:57:13 36° 116° (ESE) 08:01:43 436.795
AUBIESAT-1 29 Apr 07:58:26 08:02:25 56° 105° (ESE) 08:06:04 437.475
CUTE-I 29 Apr 08:01:38 08:06:40 45° 291° (WNW) 08:11:41 437.470
DOVE 4 29 Apr 08:03:19 08:08:29 57° 99° (E) 08:13:23 437.250
LilacSat-2 29 Apr 08:18:22 08:21:05 19° 293° (WNW) 08:23:47 437.200
HO-68 29 Apr 08:22:38 08:29:04 35° 96° (E) 08:35:27 435.675
SEEDS 29 Apr 08:23:35 08:26:34 19° 93° (E) 08:29:32 437.485
COMPASS 1 29 Apr 08:34:50 08:37:42 18° 93° (E) 08:40:33 437.405
STRAND 1 29 Apr 08:44:18 08:47:07 15° 270° (W) 08:49:56 437.568
Cubesat XI-IV 29 Apr 08:45:36 08:49:23 20° 298° (WNW) 08:53:11 437.490
CANX-2 29 Apr 08:49:49 08:53:59 57° 100° (E) 08:58:08 2200.000
YUBILEINY 29 Apr 08:52:19 08:57:39 18° 283° (WNW) 09:03:00 435.215
CUBEBUG 2 29 Apr 08:57:03 09:00:15 20° 92° (E) 09:03:22 437.445
UWE-3 29 Apr 08:59:09 09:01:27 14° 90° (E) 09:03:43 435.000/436.395/437.385
NOAA 15 29 Apr 09:01:03 09:02:15 11° 305° (NW) 09:03:27 137.62
ANTELSAT 29 Apr 09:03:58 09:06:16 14° 62° (ENE) 09:08:35 437.575/2403.000
RS-15 29 Apr 09:08:12 09:19:16 42° 253° (WSW) 09:30:20 29.354- 29.394
PRISM 29 Apr 09:08:44 09:12:07 25° 264° (W) 09:15:31 437.425
AAUSAT CUBESAT 2 29 Apr 09:09:07 09:12:55 34° 97° (E) 09:16:41 437.432
M-CUBED/EXP-1 PRIME 29 Apr 09:11:14 09:14:11 19° 301° (WNW) 09:16:58 437.505
Cosmos 2504 29 Apr 09:11:19 09:18:19 45° 271° (W) 09:25:47 435.465 / 435.565
ISS 29 Apr 09:12:34 09:15:48 67° 143° (SE) 09:19:03 145.825
CINEMA 3 29 Apr 09:17:35 09:22:22 80° 284° (WNW) 09:26:52 145.822/145.860
CUTE 1.7 + AOD 2 29 Apr 09:23:26 09:27:38 67° 285° (WNW) 09:31:49 437.475
GOMX 1 29 Apr 09:25:17 09:28:39 17° 300° (WNW) 09:31:59 467.674
SO-50 29 Apr 09:33:17 09:37:45 34° 314° (NW) 09:42:13 436.795
AUBIESAT-1 29 Apr 09:34:20 09:36:22 14° 304° (NW) 09:38:21 437.475
Cosmos 2491 29 Apr 09:35:26 09:41:58 22° 298° (WNW) 09:48:33 435.465 / 435.565
ZACube-1 29 Apr 09:38:21 09:41:54 25° 94° (E) 09:45:22 437.345
DOVE 4 29 Apr 09:41:59 09:45:41 20° 297° (WNW) 09:49:15 437.250
UNISAT 6 29 Apr 09:55:39 10:00:04 43° 71° (ENE) 10:04:26 437.425
SEEDS 29 Apr 09:58:32 10:02:24 37° 289° (WNW) 10:06:15 437.485
COMPASS 1 29 Apr 10:09:33 10:13:25 38° 289° (WNW) 10:17:16 437.405
HO-68 29 Apr 10:10:08 10:16:55 48° 294° (WNW) 10:23:40 435.675
TIGRISAT 29 Apr 10:14:23 10:19:01 64° 74° (ENE) 10:23:36 435.000
CANX-2 29 Apr 10:27:15 10:29:22 14° 297° (WNW) 10:31:30 2200.000
Oscar 11 29 Apr 10:28:17 10:32:36 76° 284° (WNW) 10:36:53 145.826/435.025
CUBEBUG 2 29 Apr 10:32:58 10:37:03 37° 290° (WNW) 10:40:59 437.445
FUNcube-1 29 Apr 10:34:00 10:38:15 80° 286° (WNW) 10:42:25 145.935
UWE-3 29 Apr 10:34:04 10:38:16 51° 287° (WNW) 10:42:20 435.000/436.395/437.385
NANOSAT C BR1 29 Apr 10:34:17 10:37:30 21° 66° (ENE) 10:40:44 145.865
ANTELSAT 29 Apr 10:37:45 10:42:25 71° 258° (WSW) 10:47:03 437.575/2403.000
GONETS M04 29 Apr 10:41:23 10:47:49 22° 62° (ENE) 10:54:09
AAUSAT CUBESAT 2 29 Apr 10:45:06 10:48:11 21° 293° (WNW) 10:51:16 437.432
ISS 29 Apr 10:49:43 10:52:30 25° 342° (NNW) 10:55:18 145.825
BUGSAT 1 29 Apr 10:53:00 10:55:37 16° 64° (ENE) 10:58:15 437.445
DELFI C3 29 Apr 10:56:13 11:00:11 72° 285° (WNW) 11:04:08 145.870
ZACube-1 29 Apr 11:14:32 11:18:09 28° 292° (WNW) 11:21:44 437.345
HUMSAT D 29 Apr 11:16:52 11:20:59 82° 103° (ESE) 11:25:03 437.325/437.525
VELOX 1 29 Apr 11:21:46 11:23:45 13° 90° (E) 11:25:45 145.980
QB50P2 29 Apr 11:21:59 11:26:16 75° 76° (ENE) 11:30:35 145.880/145.840
AIST 1 29 Apr 11:23:10 11:26:44 23° 73° (ENE) 11:30:17
POLYITAN 1 29 Apr 11:24:04 11:28:22 76° 74° (ENE) 11:32:41 437.675
DUCHIFAT 1 29 Apr 11:27:25 11:31:40 74° 75° (ENE) 11:35:56 145.980
PHONESAT 2.4 29 Apr 11:27:32 11:29:29 15° 152° (SSE) 11:31:27 2401.200-2431.200
POPSAT HIP 1 29 Apr 11:27:49 11:32:05 81° 78° (ENE) 11:36:25 437.405
QB50P1 29 Apr 11:31:27 11:35:44 90° 196° (SSW) 11:40:04 145.935-145.965
DX 1 29 Apr 11:32:27 11:34:55 15° 91° (E) 11:37:22 434.975-435.025
UNISAT 6 29 Apr 11:33:29 11:36:56 20° 267° (W) 11:40:22 437.425
Cosmos 2499 29 Apr 11:36:46 11:42:41 24° 67° (ENE) 11:48:54 435.465 / 435.565
50 SAT 29 Apr 11:42:17 11:45:09 21° 95° (E) 11:48:00 437.505
UKube-1 29 Apr 11:46:12 11:49:00 17° 92° (E) 11:51:48 .
AISAT 29 Apr 11:51:45 11:55:37 28° 96° (E) 11:59:28 437.250
ESTCUBE 1 29 Apr 11:53:32 11:57:47 39° 98° (E) 12:02:01 437.505/2401.250
TIGRISAT 29 Apr 11:53:44 11:56:06 14° 270° (W) 11:58:27 435.000
JAS-2 29 Apr 12:02:15 12:07:10 28° 61° (ENE) 12:12:37 435.910
NANOSAT C BR1 29 Apr 12:09:04 12:13:01 36° 262° (W) 12:16:59 145.865
Oscar 19 29 Apr 12:16:33 12:20:20 21° 62° (ENE) 12:24:08 437.125/150
SPROUT 29 Apr 12:23:10 12:26:32 22° 94° (E) 12:29:51 437.525
BUGSAT 1 29 Apr 12:26:31 12:30:35 49° 260° (W) 12:34:45 437.445
ISS 29 Apr 12:27:32 12:29:46 17° 2° (N) 12:32:01 145.825
GONETS M04 29 Apr 12:36:59 12:45:48 85° 264° (W) 12:54:31
CUBEBUG 1 29 Apr 12:39:35 12:44:04 86° 104° (ESE) 12:48:30 437.445
VELOX 1 29 Apr 12:56:12 13:00:39 63° 286° (WNW) 13:05:03 145.980
AIST 1 29 Apr 13:00:28 13:04:22 31° 270° (W) 13:08:14
PHONESAT 2.4 29 Apr 13:02:54 13:05:56 44° 168° (SSE) 13:08:58 2401.200-2431.200
DX 1 29 Apr 13:07:08 13:11:26 53° 288° (WNW) 13:15:42 434.975-435.025
TISAT 1 29 Apr 13:12:12 13:15:31 22° 94° (E) 13:18:49 437.305
AO-85 29 Apr 13:13:09 13:17:58 33° 113° (ESE) 13:22:46 145.980
50 SAT 29 Apr 13:15:55 13:18:56 24° 291° (WNW) 13:21:55 437.505
Gurwin Techsat 1B 29 Apr 13:17:25 13:22:01 31° 66° (ENE) 13:26:39 435.225
UKube-1 29 Apr 13:21:08 13:25:17 45° 289° (WNW) 13:29:25 .
ITAMSAT 1 29 Apr 13:27:00 13:30:14 17° 60° (ENE) 13:33:30 435.822/435.867
AISAT 29 Apr 13:28:11 13:32:03 29° 292° (WNW) 13:35:53 437.250
Cosmos 2499 29 Apr 13:28:51 13:36:24 71° 266° (W) 13:44:33 435.465 / 435.565
ESTCUBE 1 29 Apr 13:30:54 13:34:21 22° 295° (WNW) 13:37:49 437.505/2401.250
JAS-2 29 Apr 13:46:16 13:51:50 50° 262° (W) 13:58:11 435.910
Oscar 19 29 Apr 13:54:14 13:59:15 53° 260° (W) 14:04:21 437.125/150
SPROUT 29 Apr 13:58:39 14:02:33 34° 290° (WNW) 14:06:25 437.525
ISS 29 Apr 14:04:01 14:06:58 30° 22° (NNE) 14:09:55 145.825
CUBEBUG 1 29 Apr 14:18:42 14:19:39 11° 301° (WNW) 14:20:36 437.445
ITUPSAT 1 29 Apr 14:22:26 14:26:15 23° 94° (E) 14:30:04 437.325
AO-7 29 Apr 14:28:21 14:35:43 37° 58° (ENE) 14:43:04 29.400- 29.500
SWISSCUBE 29 Apr 14:33:39 14:37:59 34° 97° (E) 14:42:17 437.505
GONETS M04 29 Apr 14:36:10 14:41:12 17° 284° (WNW) 14:46:13
PHONESAT 2.4 29 Apr 14:39:31 14:42:38 55° 185° (S) 14:45:45 2401.200-2431.200
TISAT 1 29 Apr 14:47:26 14:51:14 33° 291° (WNW) 14:55:00 437.305
O/OREOS (USA 219) 29 Apr 14:49:49 14:52:59 19° 100° (E) 14:56:09 437.305
AO-85 29 Apr 14:53:11 14:58:23 43° 311° (NW) 15:03:31 145.980
Gurwin Techsat 1B 29 Apr 14:57:01 15:01:52 36° 263° (W) 15:06:44 435.225
ITAMSAT 1 29 Apr 15:04:00 15:09:09 68° 258° (WSW) 15:14:20 435.822/435.867
BEESAT 29 Apr 15:07:04 15:11:49 67° 102° (ESE) 15:16:33 436.000
CUSAT 1 29 Apr 15:13:19 15:15:45 20° 86° (E) 15:18:37 437.405
Cosmos 2499 29 Apr 15:25:37 15:28:12 12° 284° (WNW) 15:30:52 435.465 / 435.565
HORYU 2 29 Apr 15:28:40 15:31:21 16° 62° (ENE) 15:34:01 437.375
PCSat 29 Apr 15:37:52 15:41:42 20° 106° (ESE) 15:45:34 145.827
ISS 29 Apr 15:40:24 15:43:31 44° 220° (SW) 15:46:39 145.825
ITUPSAT 1 29 Apr 15:59:47 16:04:12 38° 291° (WNW) 16:08:35 437.325
SWISSCUBE 29 Apr 16:11:40 16:15:39 27° 294° (WNW) 16:19:37 437.505
MOZHAYETS 4 29 Apr 16:12:36 16:16:30 27° 95° (E) 16:20:24
PHONESAT 2.4 29 Apr 16:16:32 16:19:14 26° 201° (SSW) 16:21:57 2401.200-2431.200
AO-7 29 Apr 16:20:08 16:28:11 54° 258° (WSW) 16:36:18 29.400- 29.500
SO-50 29 Apr 16:23:23 16:27:53 40° 48° (NE) 16:32:14 436.795
O/OREOS (USA 219) 29 Apr 16:27:36 16:32:01 46° 298° (WNW) 16:36:28 437.305
KKS-1 29 Apr 16:36:59 16:41:30 77° 103° (ESE) 16:45:57 437.445
AO-85 29 Apr 16:38:28 16:40:16 12° 332° (NNW) 16:42:03 145.980
BEESAT 29 Apr 16:46:25 16:49:04 15° 299° (WNW) 16:51:43 436.000
Cubesat XI-IV 29 Apr 16:50:19 16:53:15 15° 59° (ENE) 16:56:09 437.490
CUSAT 1 29 Apr 16:55:10 16:57:45 21° 294° (WNW) 17:00:52 437.405
NOAA 15 29 Apr 17:00:27 17:04:46 27° 64° (ENE) 17:09:08 137.62
HORYU 2 29 Apr 17:03:02 17:07:27 56° 259° (W) 17:11:52 437.375
DANDE 29 Apr 17:03:16 17:05:50 36° 286° (WNW) 17:08:52 436.750
STARS 29 Apr 17:04:02 17:08:28 78° 102° (ESE) 17:12:52 437.465
AUBIESAT-1 29 Apr 17:13:21 17:14:54 12° 54° (NE) 17:16:27 437.475
PCSat 29 Apr 17:19:16 17:24:37 60° 304° (WNW) 17:30:01 145.827
GOMX 1 29 Apr 17:20:04 17:21:50 12° 57° (ENE) 17:23:38 467.674
BRITE-PL 29 Apr 17:24:33 17:28:18 23° 64° (ENE) 17:32:17 437.365/2234.400
NOAA 18 29 Apr 17:25:19 17:30:28 41° 67° (ENE) 17:35:35 137.9125
LilacSat-2 29 Apr 17:26:48 17:29:36 19° 67° (ENE) 17:32:24 437.200
CUTE-I 29 Apr 17:44:30 17:49:29 43° 69° (ENE) 17:54:30 437.470
Cosmos 2491 29 Apr 17:44:54 17:53:16 44° 73° (ENE) 18:01:31 435.465 / 435.565
CUBESAT XI-V 29 Apr 17:47:08 17:51:18 31° 96° (E) 17:55:27 437.345
MOZHAYETS 4 29 Apr 17:49:40 17:53:38 30° 292° (WNW) 17:57:37
YUBILEINY 29 Apr 18:01:35 18:07:41 22° 78° (ENE) 18:13:45 435.215
SO-50 29 Apr 18:04:17 18:08:10 26° 247° (WSW) 18:11:57 436.795
KKS-1 29 Apr 18:15:42 18:17:25 12° 300° (WNW) 18:19:08 437.445
M-CUBED/EXP-1 PRIME 29 Apr 18:22:01 18:26:39 60° 68° (ENE) 18:31:18 437.505
Cubesat XI-IV 29 Apr 18:27:17 18:32:38 81° 256° (WSW) 18:37:59 437.490
NOAA 15 29 Apr 18:39:23 18:44:20 42° 262° (W) 18:49:20 137.62
STARS 29 Apr 18:42:42 18:44:12 12° 300° (WNW) 18:45:41 437.465
AUBIESAT-1 29 Apr 18:44:00 18:48:40 83° 71° (ENE) 18:53:19 437.475
CINEMA 3 29 Apr 18:45:04 18:47:26 13° 60° (ENE) 18:49:49 145.822/145.860
HO-68 29 Apr 18:52:34 18:58:32 29° 59° (ENE) 19:04:29 435.675
GOMX 1 29 Apr 18:54:02 18:58:57 83° 76° (ENE) 19:04:14 467.674
LilacSat-2 29 Apr 19:00:11 19:03:42 32° 263° (W) 19:07:14 437.200
BEESAT 3 29 Apr 19:01:46 19:05:06 27° 115° (ESE) 19:08:29 437.485
BRITE-PL 29 Apr 19:02:03 19:06:29 42° 264° (W) 19:11:18 437.365/2234.400
BEESAT 2 29 Apr 19:02:49 19:05:22 17° 111° (ESE) 19:07:56 435.950
NOAA 18 29 Apr 19:06:30 19:11:12 28° 264° (W) 19:15:55 137.9125
PCSat 29 Apr 19:06:40 19:09:11 13° 325° (NW) 19:11:42 145.827
DOVE 4 29 Apr 19:08:41 19:13:37 60° 73° (ENE) 19:18:48 437.250
STRAND 1 29 Apr 19:12:53 19:16:46 21° 93° (E) 19:20:37 437.568
SEEDS 29 Apr 19:16:48 19:19:15 15° 64° (ENE) 19:21:42 437.485
CUBESAT XI-V 29 Apr 19:24:35 19:28:36 29° 292° (WNW) 19:32:36 437.345
CUTE-I 29 Apr 19:25:20 19:29:42 25° 266° (W) 19:34:04 437.470
COMPASS 1 29 Apr 19:27:14 19:29:28 14° 64° (ENE) 19:31:42 437.405
Cosmos 2491 29 Apr 19:41:56 19:50:03 43° 273° (W) 19:58:06 435.465 / 435.565
CANX-2 29 Apr 19:43:08 19:47:09 44° 72° (ENE) 19:51:10 2200.000
YUBILEINY 29 Apr 19:54:39 20:03:24 81° 278° (W) 20:12:11 435.215
CUBEBUG 2 29 Apr 19:55:34 19:59:07 21° 66° (ENE) 20:02:39 437.445
UWE-3 29 Apr 19:56:49 19:59:32 16° 63° (ENE) 20:02:14 435.000/436.395/437.385
M-CUBED/EXP-1 PRIME 29 Apr 19:58:34 20:01:30 16° 264° (W) 20:04:26 437.505
Cosmos 2504 29 Apr 19:58:56 20:04:51 27° 84° (E) 20:10:38 435.465 / 435.565
AAUSAT CUBESAT 2 29 Apr 20:00:20 20:03:45 26° 68° (ENE) 20:07:09 437.432
CUTE 1.7 + AOD 2 29 Apr 20:16:24 20:20:38 89° 259° (W) 20:24:53 437.475
CINEMA 3 29 Apr 20:18:51 20:23:51 84° 257° (WSW) 20:28:55 145.822/145.860
AUBIESAT-1 29 Apr 20:22:17 20:23:37 11° 266° (W) 20:24:58 437.475
ZACube-1 29 Apr 20:34:41 20:38:22 25° 67° (ENE) 20:42:00 437.345
GOMX 1 29 Apr 20:35:59 20:37:47 12° 274° (W) 20:39:37 467.674
HO-68 29 Apr 20:38:46 20:45:48 59° 258° (WSW) 20:52:53 435.675
BEESAT 2 29 Apr 20:39:01 20:42:52 46° 308° (NW) 20:46:45 435.950
BEESAT 3 29 Apr 20:39:16 20:42:45 29° 312° (NW) 20:46:15 437.485
DOVE 4 29 Apr 20:48:27 20:51:44 17° 271° (W) 20:55:08 437.250
PRISM 29 Apr 20:48:44 20:52:39 38° 99° (E) 20:56:33 437.425
SEEDS 29 Apr 20:50:31 20:54:34 49° 261° (W) 20:58:38 437.485
STRAND 1 29 Apr 20:51:17 20:56:10 47° 290° (WNW) 21:01:02 437.568
COMPASS 1 29 Apr 21:00:34 21:04:36 52° 260° (W) 21:08:40 437.405
CANX-2 29 Apr 21:20:35 21:23:14 16° 268° (W) 21:25:53 2200.000
RS-15 29 Apr 21:20:47 21:30:26 35° 105° (ESE) 21:40:30 29.354- 29.394
Oscar 11 29 Apr 21:23:19 21:27:39 88° 69° (ENE) 21:31:59 145.826/435.025
FUNcube-1 29 Apr 21:29:29 21:34:03 85° 74° (ENE) 21:38:32 145.935
CUBEBUG 2 29 Apr 21:30:54 21:35:26 44° 262° (W) 21:39:58 437.445
UWE-3 29 Apr 21:30:54 21:35:31 61° 260° (W) 21:40:06 435.000/436.395/437.385
AAUSAT CUBESAT 2 29 Apr 21:35:40 21:39:10 26° 265° (W) 21:42:40 437.432
AIST 2 29 Apr 21:41:03 21:45:06 58° 120° (ESE) 21:49:11 435.215
DELFI C3 29 Apr 21:42:39 21:46:34 71° 75° (ENE) 21:50:30 145.870
AO-85 29 Apr 21:44:27 21:48:53 33° 46° (NE) 21:52:57 145.980
Cosmos 2504 29 Apr 21:50:38 21:57:46 53° 283° (WNW) 22:04:46 435.465 / 435.565
YUBILEINY 29 Apr 21:56:19 22:01:44 18° 301° (WNW) 22:07:11 435.215
TIGRISAT 29 Apr 22:07:40 22:09:08 11° 89° (E) 22:10:35 435.000
HUMSAT D 29 Apr 22:08:25 22:12:37 61° 74° (ENE) 22:16:47 437.325/437.525
ZACube-1 29 Apr 22:10:19 22:14:29 34° 263° (W) 22:18:37 437.345
VELOX 1 29 Apr 22:20:11 22:22:23 14° 61° (ENE) 22:24:36 145.980
50 SAT 29 Apr 22:23:10 22:24:45 13° 64° (ENE) 22:26:22 437.505
PRISM 29 Apr 22:24:44 22:27:42 19° 295° (WNW) 22:30:41 437.425
DX 1 29 Apr 22:29:04 22:31:34 15° 62° (ENE) 22:34:06 434.975-435.025
ANTELSAT 29 Apr 22:29:37 22:33:00 22° 93° (E) 22:36:18 437.575/2403.000
UKube-1 29 Apr 22:41:50 22:44:35 17° 63° (ENE) 22:47:21 .
AISAT 29 Apr 22:49:54 22:53:40 28° 67° (ENE) 22:57:28 437.250
ESTCUBE 1 29 Apr 22:53:43 22:57:51 39° 70° (ENE) 23:02:02 437.505/2401.250
QB50P2 29 Apr 23:08:33 23:09:56 11° 89° (E) 23:11:21 145.880/145.840
POLYITAN 1 29 Apr 23:10:35 23:12:04 12° 90° (E) 23:13:31 437.675
DUCHIFAT 1 29 Apr 23:13:25 23:14:32 11° 89° (E) 23:15:40 145.980
POPSAT HIP 1 29 Apr 23:13:53 23:15:41 12° 90° (E) 23:17:27 437.405
QB50P1 29 Apr 23:17:07 23:19:19 14° 91° (E) 23:21:30 145.935-145.965
SPROUT 29 Apr 23:17:51 23:20:57 20° 65° (ENE) 23:24:03 437.525
AIST 2 29 Apr 23:21:03 23:23:57 18° 318° (NW) 23:26:52 435.215
UNISAT 6 29 Apr 23:23:07 23:27:31 84° 101° (E) 23:31:49 437.425
AO-85 29 Apr 23:25:07 23:29:20 33° 246° (WSW) 23:33:13 145.980
RS-15 29 Apr 23:30:35 23:41:54 71° 308° (NW) 23:53:56 29.354- 29.394
CUBEBUG 1 29 Apr 23:35:56 23:40:17 77° 75° (ENE) 23:44:42 437.445
TIGRISAT 29 Apr 23:41:58 23:46:18 64° 286° (WNW) 23:50:32 435.000
GONETS M04 29 Apr 23:44:45 23:51:13 23° 79° (E) 23:57:41
HUMSAT D 29 Apr 23:47:04 23:48:37 12° 270° (W) 23:50:11 437.325/437.525
NANOSAT C BR1 29 Apr 23:52:38 23:56:28 32° 97° (E) 00:00:15 145.865
VELOX 1 29 Apr 23:53:55 23:58:18 66° 258° (WSW) 00:02:45 145.980
50 SAT 29 Apr 23:54:38 23:58:10 46° 260° (W) 00:01:44 437.505
AIST 1 29 Apr 23:55:03 23:57:01 13° 84° (E) 23:58:58
DX 1 30 Apr 00:03:02 00:07:18 56° 259° (W) 00:11:38 434.975-435.025
TISAT 1 30 Apr 00:04:56 00:07:58 19° 65° (ENE) 00:11:01 437.305
ANTELSAT 30 Apr 00:05:52 00:09:48 34° 291° (WNW) 00:13:41 437.575/2403.000
BUGSAT 1 30 Apr 00:08:09 00:11:29 22° 94° (E) 00:14:44 437.445
UKube-1 30 Apr 00:16:04 00:20:15 49° 260° (W) 00:24:28 .
Cosmos 2499 30 Apr 00:17:55 00:21:40 15° 78° (ENE) 00:25:25 435.465 / 435.565
PCSat 30 Apr 00:23:38 00:27:54 23° 44° (NE) 00:32:11 145.827
AISAT 30 Apr 00:26:14 00:30:04 29° 264° (W) 00:33:58 437.250
ESTCUBE 1 30 Apr 00:31:27 00:34:48 21° 267° (W) 00:38:11 437.505/2401.250
BEESAT 30 Apr 00:40:51 00:41:45 10° 58° (ENE) 00:42:41 436.000
QB50P2 30 Apr 00:41:57 00:46:11 64° 286° (WNW) 00:50:21 145.880/145.840
POLYITAN 1 30 Apr 00:44:04 00:48:17 62° 286° (WNW) 00:52:27 437.675
DUCHIFAT 1 30 Apr 00:46:29 00:50:41 66° 286° (WNW) 00:54:51 145.980
POPSAT HIP 1 30 Apr 00:47:39 00:51:51 59° 286° (WNW) 00:55:59 437.405
QB50P1 30 Apr 00:51:16 00:55:25 52° 287° (WNW) 00:59:31 145.935-145.965
SPROUT 30 Apr 00:52:33 00:56:37 40° 262° (W) 01:00:43 437.525
JAS-2 30 Apr 00:53:51 01:00:21 29° 92° (E) 01:06:53 435.910
O/OREOS (USA 219) 30 Apr 00:57:37 01:01:54 40° 61° (ENE) 01:06:08 437.305
UNISAT 6 30 Apr 01:02:52 01:03:32 10° 301° (WNW) 01:04:11 437.425
NANOSAT C BR1 30 Apr 01:28:42 01:32:02 23° 293° (WNW) 01:35:21 145.865
ITUPSAT 1 30 Apr 01:29:50 01:33:58 30° 67° (ENE) 01:38:07 437.325
AIST 1 30 Apr 01:29:53 01:34:04 54° 281° (W) 01:38:21
Gurwin Techsat 1B 30 Apr 01:35:30 01:36:24 10° 87° (E) 01:37:18 435.225
GONETS M04 30 Apr 01:38:12 01:47:03 77° 279° (W) 01:55:57
TISAT 1 30 Apr 01:39:21 01:43:21 39° 262° (W) 01:47:23 437.305
SWISSCUBE 30 Apr 01:40:42 01:45:11 43° 70° (ENE) 01:49:41 437.505
CUSAT 1 30 Apr 01:42:21 01:48:30 34° 72° (ENE) 01:55:29 437.405
BUGSAT 1 30 Apr 01:43:08 01:46:54 32° 291° (WNW) 01:50:37 437.445
RS-15 30 Apr 01:47:08 01:57:02 30° 338° (NNW) 02:07:20 29.354- 29.394
DANDE 30 Apr 01:54:50 01:59:22 21° 69° (ENE) 02:04:37 436.750
Oscar 19 30 Apr 02:04:51 02:09:57 51° 100° (E) 02:14:58 437.125/150
PCSat 30 Apr 02:06:24 02:11:47 65° 244° (WSW) 02:17:07 145.827
Cosmos 2499 30 Apr 02:06:34 02:13:43 86° 279° (W) 02:20:50 435.465 / 435.565
BEESAT 30 Apr 02:14:00 02:18:45 84° 80° (E) 02:23:32 436.000
O/OREOS (USA 219) 30 Apr 02:37:40 02:41:01 21° 259° (W) 02:44:20 437.305
JAS-2 30 Apr 02:38:07 02:45:43 65° 289° (WNW) 02:53:28 435.910
ITUPSAT 1 30 Apr 03:07:35 03:11:45 30° 264° (W) 03:15:57 437.325
Gurwin Techsat 1B 30 Apr 03:11:45 03:17:07 86° 106° (ESE) 03:22:26 435.225
MOZHAYETS 4 30 Apr 03:15:12 03:19:08 29° 68° (ENE) 03:23:04
ITAMSAT 1 30 Apr 03:16:09 03:21:01 40° 98° (E) 03:25:52 435.822/435.867
BEESAT 3 30 Apr 03:18:11 03:21:25 23° 45° (NE) 03:24:37 437.485
BEESAT 2 30 Apr 03:19:26 03:22:03 17° 41° (NE) 03:24:39 435.950
SWISSCUBE 30 Apr 03:19:36 03:23:09 21° 267° (W) 03:26:44 437.505
CUSAT 1 30 Apr 03:24:05 03:30:47 53° 266° (W) 03:38:28 437.405
KKS-1 30 Apr 03:35:24 03:39:52 77° 76° (ENE) 03:44:23 437.445
DANDE 30 Apr 03:36:19 03:42:29 77° 262° (W) 03:50:16 436.750
GONETS M04 30 Apr 03:40:17 03:45:32 17° 302° (WNW) 03:50:49
Oscar 19 30 Apr 03:44:58 03:48:53 22° 297° (WNW) 03:52:47 437.125/150
BEESAT 30 Apr 03:56:22 03:57:09 10° 272° (W) 03:57:56 436.000
STARS 30 Apr 04:01:01 04:05:26 75° 75° (ENE) 04:09:54 437.465
Cosmos 2499 30 Apr 04:04:10 04:07:59 15° 299° (WNW) 04:11:48 435.465 / 435.565
RS-15 30 Apr 04:05:03 04:14:46 27° 13° (NNE) 04:24:41 29.354- 29.394
YUBILEINY 30 Apr 04:12:02 04:13:14 10° 51° (NE) 04:14:27 435.215
AO-7 30 Apr 04:20:28 04:28:33 51° 102° (ESE) 04:36:35 29.400- 29.500
JAS-2 30 Apr 04:25:23 04:29:24 15° 307° (NW) 04:33:28 435.910
CUBESAT XI-V 30 Apr 04:51:12 04:55:16 32° 69° (ENE) 04:59:22 437.345
MOZHAYETS 4 30 Apr 04:52:17 04:56:14 29° 264° (W) 05:00:13
Gurwin Techsat 1B 30 Apr 04:53:38 04:56:19 14° 302° (WNW) 04:59:00 435.225
HORYU 2 30 Apr 04:53:39 04:57:18 25° 95° (E) 05:00:55 437.375
BEESAT 3 30 Apr 04:55:34 04:59:13 36° 243° (WSW) 05:02:49 437.485
ITAMSAT 1 30 Apr 04:56:00 05:00:18 27° 295° (WNW) 05:04:35 435.822/435.867
BEESAT 2 30 Apr 04:56:21 05:00:17 62° 240° (WSW) 05:04:12 435.950
KKS-1 30 Apr 05:16:10 05:16:58 10° 271° (W) 05:17:46 437.445
DANDE 30 Apr 05:21:53 05:24:49 13° 275° (W) 05:27:59 436.750
